Regional Weather Roundup
Issued by NWS Green Bay, WI

Home | Current Version | Previous Version | Text Only | Print | Product List | Glossary On
Versions: 1 2 3 4 5 6 7 8 9 10 11 12 13 14 15 16 17 18 19 20 21 22 23 24 25 26 27 28 29 30 31 32 33 34 35 36 37 38 39 40 41 42 43 44 45 46 47 48 49 50
000
ASUS43 KGRB 190310
RWRGRB

NORTH-CENTRAL AND NORTHEAST WISCONSIN REGIONAL WEATHER ROUNDUP
NATIONAL WEATHER SERVICE GREEN BAY WI
900 PM CST THU DEC 18 2014

WIZ005-009-010>012-018-019-190400-
NORTH CENTRAL WISCONSIN

CITY           SKY/WX    TMP DP  RH WIND       PRES   REMARKS
IRONWOOD       CLOUDY    14  12  92 CALM      30.22S
MANITOWISH WTR MOCLDY     6   4  90 CALM      30.22R
ARBOR VITAE    PTCLDY    11   9  89 CALM      30.22S
EAGLE RIVER    PTCLDY     7   5  90 CALM      30.21S
LAND O LAKES   PTCLDY     3  -1  85 CALM      30.22S
RHINELANDER    PTCLDY     8   6  92 CALM      30.21S
PHILLIPS       CLOUDY    19  17  90 CALM      30.22F
ANTIGO         CLEAR     14  13  98 CALM      30.21F
TOMAHAWK       PTCLDY     7   4  88 CALM      30.23S
MERRILL        CLEAR     12  10  94 CALM      30.23S
$$

WIZ013-073-190400-
NORTHEAST WISCONSIN

CITY           SKY/WX    TMP DP  RH WIND       PRES   REMARKS
IRON MOUNTAIN  PTCLDY     9   4  80 CALM      30.23R HAZE
MARINETTE      CLEAR     21  16  79 N5        30.25S
OCONTO         CLEAR     15  15  98 CALM      30.27R
$$

WIZ017-030-035>037-045-190400-
CENTRAL WISCONSIN

CITY           SKY/WX    TMP DP  RH WIND       PRES   REMARKS
MEDFORD        CLOUDY    20  17  88 CALM      30.22S
WAUSAU         PTCLDY    19  16  88 N3        30.22F
MOSINEE        NOT AVBL
MARSHFIELD     MOCLDY    22  19  89 CALM      30.23S
WISC RAPIDS    PTCLDY    20  16  84 CALM      30.26S
STEVENS POINT  PTCLDY    15  13  94 CALM      30.25S
WAUPACA        CLEAR     20  18  90 CALM      30.26S
SHAWANO        CLEAR     20  18  91 CALM      30.26S
CLINTONVILLE   CLEAR     21  18  86 W3        30.25F
$$

WIZ038-039-048-051-190400-
FOX VALLEY

CITY           SKY/WX    TMP DP  RH WIND       PRES   REMARKS
NWS GREEN BAY  CLEAR     20  18  92 CALM      30.26F
APPLETON       PTCLDY    19  16  86 W7        30.25F
OSHKOSH        PTCLDY    23  18  81 CALM      30.25F
FOND DU LAC    PTCLDY    22  17  81 CALM      30.25F
$$

WIZ022-050-052-190400-
EAST CENTRAL WISCONSIN

CITY           SKY/WX    TMP DP  RH WIND       PRES   REMARKS
STURGEON BAY   PTCLDY    18  12  79 CALM      30.26S
MANITOWOC      CLEAR     21  19  92 NW6       30.26S
SHEBOYGAN      PTCLDY    22  17  81 NW5       30.25F
$$

LMZ563-521-522-541>543-190400-
LAKESHORE

STATION/POSITION TIME  TEMP    WIND        PRES    VSBY  WAVE
                       AIR SEA DIR/SP/G                  HT/PER
                 (UTC) (F)     (DEG/KT/KT) (MB)    (MI)  (FT/S)
SHEBOYGAN LKSHOR 0300   26 34  300/  7/  8 1025.7F
KEWAUNEE LKSHORE 0300   19     320/  4/  6 1023.7S
ALGOMA MARINA    0200          340/  6/  7   N/A
NORTHPORT PIER   0300   27      20/  6/ 11 1024.4S
SISTER BAY LKSHO 0200             CALM       N/A
CHAMBERS ISLAND  0300   28      20/ 12/ 14 1024.4F
MENOMINEE LKSHOR 0300   27     350/  9/ 11 1025.1F
$$



USA.gov is the U.S. government's official web portal to all federal, state and local government web resources and services.